CAPE
564 493 512 798 928 890 868 724 720 608 656 724 661 449 250 218 271 386 359 382 390 457 583 650 572 419 464 570 507 393 301 260 234 64 46 1 21 5 0 0 0 0 0 0 0 1 17 30 33 54 124 276 321 320 290 266 232 0 0 0 0 0 0
566 462 422 554 892 785 699 736 592 477 529 632 671 546 412 243 305 407 381 646 661 654 685 687 470 420 428 624 490 381 306 285 245 236 107 2 73 18 0 0 0 0 0 0 0 0 4 23 16 45 24 148 211 240 359 298 284 0 0 0 0 0 0
502 485 312 418 559 666 620 489 517 443 438 387 560 574 475 364 367 328 384 615 694 693 660 651 545 401 430 587 507 412 354 307 282 291 276 178 184 0 0 0 0 0 0 0 0 0 0 0 38 38 16 80 112 138 270 212 295 334 0 0 0 0 0
486 365 89 39 81 379 504 536 453 465 374 475 533 578 618 544 394 292 597 694 625 638 412 320 347 269 303 623 588 434 383 326 310 316 317 250 176 81 0 0 0 0 53 0 0 0 0 0 0 6 9 0 40 0 158 189 186 283 262 68 141 3 0
652 380 196 350 356 522 655 478 312 366 389 287 396 591 484 544 438 560 661 722 568 438 342 309 370 296 530 710 621 502 413 383 365 372 384 326 240 150 0 0 0 0 0 0 0 0 0 0 2 5 0 95 93 0 0 84 0 0 0 268 253 86 0
579 458 457 485 516 588 663 680 494 257 358 218 372 380 474 496 536 551 684 741 629 447 254 198 250 301 544 672 555 538 464 454 454 461 435 372 302 216 200 170 0 0 0 0 0 0 0 0 0 0 6 88 80 0 0 0 0 0 0 0 197 0 0
756 709 618 553 584 597 608 650 660 622 570 447 327 285 427 366 503 523 764 728 636 398 202 130 170 495 653 712 551 530 518 468 509 514 460 388 302 275 224 0 0 298 295 129 110 0 0 0 0 0 0 77 0 0 0 0 0 0 0 0 0 0 0
706 629 628 640 659 632 627 601 588 477 566 458 297 268 248 140 529 710 741 641 484 363 323 167 143 460 675 609 480 444 545 526 442 469 414 368 376 357 307 89 0 311 341 302 215 136 0 0 0 0 0 0 0 0 0 0 0 0 0 0 0 0 0
569 518 504 588 667 659 621 627 689 558 441 198 0 256 246 276 402 469 447 553 514 305 293 288 295 352 617 586 540 414 298 578 555 396 405 449 522 490 370 310 134 0 170 310 256 149 66 0 0 0 0 0 0 0 0 0 0 0 0 0 0 0 0
428 378 368 428 604 606 603 675 693 604 452 294 44 294 270 266 345 402 532 740 643 396 342 506 506 497 602 626 525 471 593 744 667 551 584 675 666 602 469 397 348 257 263 312 240 138 48 0 0 0 0 0 0 0 0 0 0 0 0 0 0 0 0
245 134 164 390 636 586 657 644 645 570 429 297 150 278 282 530 686 586 674 735 714 518 504 531 557 600 743 775 727 793 784 806 803 798 820 789 694 568 470 481 484 392 351 321 182 172 114 120 122 0 0 0 0 0 0 0 0 0 0 0 0 0 0
189 270 327 380 545 501 616 600 636 607 463 300 246 222 368 477 350 426 591 747 767 533 501 598 720 772 730 828 868 822 824 816 843 840 773 727 683 520 366 412 498 500 438 409 304 40 0 213 230 190 199 195 91 0 0 0 0 0 0 0 0 0 0
338 404 434 406 336 238 586 614 565 522 418 249 217 288 299 488 523 511 527 640 689 583 439 610 841 890 847 838 880 791 876 896 845 812 734 619 545 492 371 395 468 504 470 438 374 269 276 321 328 311 288 270 152 38 0 0 0 0 0 0 0 0 0
456 422 414 410 413 500 561 492 496 478 368 243 221 271 297 498 557 656 541 508 597 581 739 783 772 829 858 866 779 824 723 774 773 707 482 413 436 458 466 530 545 434 352 342 407 401 382 387 358 309 288 262 196 124 60 0 0 0 0 0 0 0 0
525 495 470 473 398 274 314 448 420 429 395 397 12 250 388 540 657 629 414 352 501 577 674 811 779 824 868 680 783 789 633 615 665 620 442 470 470 451 500 578 589 463 345 360 430 444 407 360 300 254 260 248 245 235 178 144 79 23 0 0 0 0 0
544 499 449 449 470 446 516 476 481 423 478 494 456 363 498 661 712 567 448 404 518 687 678 716 774 820 853 788 721 716 655 637 652 576 534 551 522 540 538 528 514 457 338 387 385 326 262 160 0 0 140 260 271 275 245 174 110 48 28 10 0 0 0
479 416 428 416 428 436 438 418 360 469 498 435 498 566 540 750 682 554 501 478 520 677 710 804 841 902 858 790 728 656 535 474 551 542 474 492 487 486 448 411 400 444 412 335 371 334 237 11 0 0 0 286 285 287 266 232 160 79 49 16 0 0 0
329 352 351 399 430 397 413 422 447 426 421 442 484 588 714 796 596 548 516 478 541 583 644 764 814 828 759 716 707 679 464 318 516 568 525 478 557 608 607 609 609 652 688 660 550 426 313 267 145 0 0 262 340 352 367 368 307 141 60 28 21 6 0
219 228 340 406 372 355 391 482 471 481 468 450 462 646 724 584 407 442 529 471 528 520 636 674 679 652 626 590 615 666 740 570 620 618 593 616 692 732 803 798 654 795 802 738 718 674 600 502 377 388 408 410 427 461 494 478 373 255 121 98 48 0 0
266 218 239 283 344 347 412 460 533 514 459 449 455 379 373 387 424 448 497 500 472 468 524 547 535 609 659 654 676 719 738 693 572 583 672 716 836 872 917 807 690 820 872 847 810 806 838 726 480 412 476 483 429 430 465 442 388 316 207 110 30 0 0
164 240 278 272 277 340 414 433 478 553 522 455 460 367 361 433 479 498 518 520 531 567 570 376 484 671 742 770 762 753 726 737 752 724 685 781 793 667 634 508 521 682 818 814 777 824 841 753 508 383 426 439 412 384 395 403 387 358 258 84 0 0 50
208 190 283 323 315 348 434 501 546 578 556 431 252 324 416 531 584 514 564 529 450 420 356 371 587 682 796 780 694 692 675 684 677 673 728 756 690 561 523 564 592 660 647 635 649 630 618 586 492 409 445 490 511 475 447 370 320 314 299 224 16 104 125
205 238 189 297 326 309 428 512 597 584 558 386 198 300 363 426 634 708 610 509 398 320 318 396 609 716 820 731 678 686 681 642 655 646 625 579 575 576 573 608 622 612 617 522 507 530 496 212 160 271 118 208 478 430 355 259 116 124 116 192 0 26 162
0 0 123 247 224 314 342 419 528 576 480 278 55 265 348 416 501 527 465 411 360 358 386 521 710 715 692 671 602 650 630 614 622 626 556 578 614 634 665 695 679 627 600 600 640 740 777 687 491 506 440 254 0 112 156 0 0 0 0 0 0 6 0
0 0 0 1 76 248 290 345 430 519 388 150 209 275 306 350 427 448 438 494 507 438 524 634 614 602 624 584 500 546 479 401 472 520 589 624 639 688 748 698 543 376 370 425 455 406 454 579 674 595 444 376 235 0 0 0 0 0 0 0 0 0 0
0 0 0 1 1 1 212 276 364 428 363 79 52 267 304 335 386 412 393 439 480 498 510 415 389 497 620 528 365 346 382 374 363 473 584 623 619 626 621 551 328 274 290 264 230 253 352 454 499 436 393 329 317 274 95 0 0 0 0 2 0 0 0
0 0 0 0 1 1 158 208 216 340 378 153 132 255 322 399 470 478 478 452 472 518 421 322 310 376 430 383 324 294 311 302 291 355 405 446 439 360 313 228 214 186 106 200 272 310 350 330 299 305 328 284 153 59 76 0 0 0 0 2 0 0 2
0 0 0 1 1 46 122 148 160 138 301 234 166 33 292 404 522 579 500 380 429 503 410 335 280 291 308 304 256 194 187 223 260 306 372 358 354 311 282 222 140 0 184 254 308 359 358 337 292 273 233 166 0 0 0 0 0 0 0 0 0 0 4
2 0 0 0 8 18 103 138 141 135 239 63 167 192 280 358 482 528 361 261 376 482 451 367 296 287 304 298 266 197 208 224 245 257 176 40 164 214 222 137 0 28 213 266 321 371 372 328 292 245 66 0 0 0 0 0 0 0 0 0 0 0 0
0 2 1 0 1 17 82 123 155 114 165 164 104 160 247 306 386 438 298 171 168 192 251 268 262 273 277 304 277 192 181 226 211 0 0 0 0 0 0 0 0 152 93 142 248 287 167 3 0 0 0 0 0 0 0 0 2 0 0 0 0 0 0
0 2 2 1 0 0 48 90 117 179 150 74 70 168 221 307 382 386 160 77 0 124 199 252 267 215 204 249 186 149 188 168 6 0 0 0 0 0 0 0 115 120 61 50 16 12 0 0 0 0 0 0 0 0 0 0 4 22 0 2 0 0 0
0 0 2 1 0 0 0 19 88 45 131 35 36 121 159 234 277 275 52 80 162 222 284 281 217 142 158 160 102 113 42 0 0 0 0 0 0 0 152 159 123 88 81 41 11 2 0 0 0 0 0 0 0 0 0 0 0 0 0 0 0 0 0
0 0 0 0 0 0 0 0 47 116 108 43 59 78 152 222 262 184 64 94 110 253 258 221 133 106 127 139 90 76 78 66 59 43 20 0 0 0 0 0 4 13 17 9 8 10 10 12 2 0 0 0 0 0 6 7 7 4 0 0 0 0 4
0 0 0 0 0 0 0 0 2 47 72 56 42 82 144 125 131 66 58 52 38 24 124 120 82 84 93 106 101 82 22 44 62 50 38 26 20 11 4 0 0 2 4 7 7 10 17 19 19 17 17 16 15 14 14 15 17 19 16 14 0 0 0
0 0 0 0 0 0 0 0 0 0 19 29 21 31 106 64 37 56 68 55 40 59 0 69 57 0 54 63 57 78 68 51 39 34 23 22 18 11 6 7 8 3 0 8 13 15 18 21 16 13 13 13 19 24 20 11 6 6 0 1 2 5 4
0 0 0 0 0 0 0 0 0 0 0 0 4 17 18 13 14 27 38 34 31 32 32 47 52 12 0 0 0 40 35 18 12 10 14 11 6 8 6 6 8 10 9 6 13 14 18 26 26 9 23 21 23 31 30 21 16 6 12 6 0 0 0
0 0 0 0 0 0 0 0 0 0 0 0 0 0 0 18 18 1 3 0 2 2 4 3 32 19 12 10 6 18 20 12 9 6 4 2 3 2 2 3 7 10 16 28 29 30 30 31 28 42 40 36 44 47 42 32 32 26 10 0 0 0 0
Wind_Speed
29 29 27 24 24 24 21 20 19 19 14 17 20 21 23 26 27 28 27 22 23 23 22 23 22 18 22 23 21 21 23 22 20 nan nan nan nan nan nan nan nan nan nan nan nan nan nan nan nan nan 13 11 14 15 13 13 15 nan nan nan nan nan nan
30 29 25 26 25 23 20 20 17 17 16 16 19 21 20 25 27 27 26 22 21 23 22 24 23 20 19 24 23 23 22 21 20 20 20 nan nan nan nan nan nan nan nan nan nan nan nan nan nan nan nan 14 16 16 15 14 14 nan nan nan nan nan nan
31 33 30 24 24 27 20 23 23 17 17 17 18 22 22 23 26 26 25 23 22 25 22 21 22 18 19 25 23 21 22 21 21 21 19 19 17 nan nan nan nan nan nan nan nan nan nan nan nan nan nan nan 17 18 17 16 15 15 nan nan nan nan nan
33 33 nan nan nan 24 22 23 22 18 18 17 18 21 21 21 23 28 28 25 26 24 21 22 21 18 21 26 23 21 22 21 21 22 21 21 20 nan nan nan nan nan nan nan nan nan nan nan nan nan nan nan nan nan 16 18 17 15 15 nan 16 nan nan
29 28 28 29 27 23 23 24 23 20 17 20 22 22 22 19 23 28 27 28 27 25 23 24 21 20 23 27 24 22 22 22 23 23 23 22 20 20 nan nan nan nan nan nan nan nan nan nan nan nan nan nan nan nan nan nan nan nan nan 16 16 nan nan
24 25 26 28 28 25 24 23 24 20 20 22 21 21 20 19 23 27 26 24 24 23 24 24 22 20 28 27 24 24 23 23 23 23 23 21 20 20 18 17 nan nan nan nan nan nan nan nan nan nan nan nan nan nan nan nan nan nan nan nan 17 nan nan
21 23 25 27 27 27 27 24 23 21 18 18 19 20 21 22 24 24 21 20 23 24 23 22 21 23 25 23 23 24 24 24 25 24 22 21 20 19 20 nan nan 17 16 18 18 nan nan nan nan nan nan nan nan nan nan nan nan nan nan nan nan nan nan
22 24 26 26 27 27 26 23 23 22 18 17 21 20 22 23 24 22 17 20 22 23 24 22 22 27 28 29 25 23 24 26 24 24 22 22 22 21 20 nan nan 18 18 18 19 18 nan nan nan nan nan nan nan nan nan nan nan nan nan nan nan nan nan
22 24 27 28 27 25 24 23 24 23 20 18 nan 23 24 25 27 25 22 20 24 27 26 24 22 24 28 28 26 22 22 27 27 25 23 22 21 21 20 22 22 nan 19 18 17 19 nan nan nan nan nan nan nan nan nan nan nan nan nan nan nan nan nan
23 22 24 29 30 26 25 27 27 24 23 22 nan 23 24 26 27 26 21 21 25 28 26 24 24 26 28 28 26 24 22 26 26 25 25 23 24 25 21 19 19 19 19 19 19 19 nan nan nan nan nan nan nan nan nan nan nan nan nan nan nan nan nan
22 21 21 24 25 25 27 29 28 27 25 24 22 22 24 26 26 25 23 22 24 26 24 25 27 28 28 29 27 25 23 25 26 26 24 24 24 25 23 19 19 19 21 21 19 20 21 21 22 nan nan nan nan nan nan nan nan nan nan nan nan nan nan
20 19 18 17 20 23 27 28 27 26 27 26 23 22 24 26 25 24 23 23 23 23 23 24 28 29 28 27 27 25 24 24 26 24 24 23 23 24 22 19 18 20 22 20 21 nan nan 22 22 21 20 23 nan nan nan nan nan nan nan nan nan nan nan
15 15 17 20 23 22 23 25 25 28 27 26 23 21 21 23 25 27 25 23 23 26 25 23 27 28 27 25 25 24 22 24 25 23 22 22 23 22 21 19 18 19 22 23 22 21 21 21 22 22 22 23 24 nan nan nan nan nan nan nan nan nan nan
10 11 13 15 18 20 20 21 25 27 29 26 25 20 18 22 24 25 25 23 23 26 27 26 27 28 25 24 24 23 24 23 24 23 23 22 22 22 21 19 19 19 23 23 23 23 22 23 24 23 24 25 26 27 nan nan nan nan nan nan nan nan nan
7 7 10 14 19 23 20 18 21 26 25 25 nan 21 19 23 23 23 25 25 23 26 28 28 27 27 26 26 24 26 25 24 22 23 24 23 23 22 22 20 20 21 22 24 25 24 23 24 24 25 25 26 27 27 26 29 nan nan nan nan nan nan nan
10 8 11 15 16 19 20 17 19 20 21 24 25 22 21 23 24 23 23 25 27 28 28 27 26 26 26 23 25 28 27 24 24 25 23 22 22 23 23 21 19 23 27 26 26 25 25 25 nan nan 25 26 27 28 29 28 30 nan nan nan nan nan nan
9 10 13 16 15 17 20 17 18 17 18 25 26 23 23 24 26 24 24 25 25 27 28 27 25 25 25 24 26 23 26 24 22 23 23 23 23 23 23 22 22 26 25 27 28 27 25 nan nan nan nan 25 27 30 27 26 28 nan nan nan nan nan nan
7 8 12 17 19 18 18 19 18 16 22 24 22 21 24 26 26 25 24 24 24 26 27 28 25 24 25 26 26 26 23 21 21 23 23 24 24 25 24 23 25 26 27 27 28 27 27 26 25 nan nan 26 27 27 27 26 27 28 nan nan nan nan nan
12 8 9 12 16 17 18 20 20 21 23 23 23 24 25 26 27 25 25 25 25 28 30 28 26 25 25 26 27 27 25 23 24 26 26 26 25 25 25 25 27 26 26 26 27 27 26 25 25 25 26 27 26 29 28 26 26 26 25 nan nan nan nan
13 13 9 10 13 15 16 17 19 22 24 25 27 29 28 27 29 30 29 29 27 28 26 28 27 25 25 25 26 27 27 27 29 27 25 25 25 25 24 26 27 27 26 27 28 26 25 24 24 25 26 28 27 28 28 27 26 25 24 22 nan nan nan
14 12 12 11 13 14 15 15 16 20 23 25 29 29 24 22 26 29 26 27 30 32 31 27 27 25 25 24 26 27 28 28 28 27 26 26 26 26 26 26 26 27 27 27 27 24 23 24 24 25 26 28 29 27 27 28 27 25 23 nan nan nan nan
16 14 14 12 13 15 15 16 17 20 21 24 27 26 24 24 26 25 25 26 28 30 30 26 26 26 25 25 26 27 28 28 28 28 27 26 26 27 27 27 27 28 27 26 22 21 21 24 26 26 25 26 27 26 26 27 25 25 24 24 nan 27 28
20 17 15 14 12 14 16 16 18 19 19 21 23 23 24 24 23 23 25 24 26 27 27 26 25 23 24 27 28 29 29 28 28 28 28 28 28 27 27 28 27 27 26 26 20 27 37 36 33 32 27 21 22 25 24 23 25 25 24 23 nan nan 28
nan nan 19 16 14 13 14 16 17 17 17 18 nan 21 23 23 23 23 23 22 22 24 27 27 25 25 23 26 29 30 30 29 29 29 28 28 27 29 29 29 27 27 27 29 36 39 34 37 40 40 36 30 nan 26 25 nan nan nan nan nan nan nan nan
nan nan nan nan nan 15 15 17 17 17 16 15 17 20 22 22 23 25 25 24 23 24 26 28 28 27 26 27 30 32 32 31 29 28 27 27 29 31 31 32 32 32 33 35 37 38 38 39 42 43 42 40 39 nan nan nan nan nan nan nan nan nan nan
nan nan nan nan nan nan 16 18 20 21 21 nan nan 20 21 25 25 27 28 28 27 28 29 30 29 28 27 26 28 33 34 32 30 28 28 29 31 31 33 35 36 35 36 40 39 37 38 39 41 45 45 45 45 43 nan nan nan nan nan nan nan nan nan
nan nan nan nan nan nan 16 20 22 25 27 27 25 24 25 26 28 29 30 30 31 32 31 32 30 28 27 27 31 37 38 37 36 35 33 32 32 32 32 35 35 35 35 37 37 38 37 38 37 38 40 39 39 nan nan nan nan nan nan nan nan nan nan
nan nan nan nan nan nan 27 22 25 26 28 30 29 nan 27 29 29 31 32 32 33 34 34 34 30 29 30 34 39 41 41 40 38 37 36 34 34 34 34 35 35 nan 35 34 35 37 38 38 39 38 39 39 nan nan nan nan nan nan nan nan nan nan nan
nan nan nan nan nan nan 31 33 32 30 30 nan 34 33 32 33 33 33 34 34 34 38 41 39 33 31 34 39 44 42 42 42 40 38 36 nan 35 35 35 35 nan nan 34 35 35 38 39 39 39 41 nan nan nan nan nan nan nan nan nan nan nan nan nan
nan nan nan nan nan nan nan 35 35 34 34 33 36 36 35 35 35 36 38 37 36 41 45 44 39 34 35 41 43 42 43 42 40 nan nan nan nan nan nan nan nan 36 nan 36 35 37 38 nan nan nan nan nan nan nan nan nan nan nan nan nan nan nan nan
nan nan nan nan nan nan nan nan 38 38 38 nan nan 37 38 39 39 39 41 nan nan 43 47 49 47 41 36 36 41 42 40 40 nan nan nan nan nan nan nan nan 35 36 nan nan nan nan nan nan nan nan nan nan nan nan nan nan nan nan nan nan nan nan nan
nan nan nan nan nan nan nan nan nan nan 40 nan nan 38 39 41 41 41 nan nan 49 49 50 53 54 48 44 40 39 40 nan nan nan nan nan nan nan nan 39 40 41 nan nan nan nan nan nan nan nan nan nan nan nan nan nan nan nan nan nan nan nan nan nan
nan nan nan nan nan nan nan nan nan 42 42 nan nan nan 43 43 44 43 nan nan 50 51 52 54 56 52 45 44 nan nan nan nan nan nan nan nan nan nan nan nan nan nan nan nan nan nan nan nan nan nan nan nan nan nan nan nan nan nan nan nan nan nan nan
nan nan nan nan nan nan nan nan nan nan nan nan nan nan 46 45 45 nan nan nan nan nan 54 54 nan nan nan 48 46 nan nan nan nan nan nan nan nan nan nan nan nan nan nan nan nan nan nan nan nan nan nan nan nan nan nan nan nan nan nan nan nan nan nan
nan nan nan nan nan nan nan nan nan nan nan nan nan nan 49 nan nan nan nan nan nan nan nan nan nan nan nan nan nan nan nan nan nan nan nan nan nan nan nan nan nan nan nan nan nan nan nan nan nan nan nan nan nan nan nan nan nan nan nan nan nan nan nan
nan nan nan nan nan nan nan nan nan nan nan nan nan nan nan nan nan nan nan nan nan nan nan nan nan nan nan nan nan nan nan nan nan nan nan nan nan nan nan nan nan nan nan nan nan nan nan nan nan nan nan nan nan nan nan nan nan nan nan nan nan nan nan
nan nan nan nan nan nan nan nan nan nan nan nan nan nan nan nan nan nan nan nan nan nan nan nan nan nan nan nan nan nan nan nan nan nan nan nan nan nan nan nan nan nan nan nan nan nan nan nan nan nan nan nan nan nan nan nan nan nan nan nan nan nan nan
Wind_Direction
261 256 250 253 256 263 268 278 277 274 266 268 270 272 277 272 265 261 257 251 255 256 251 245 247 245 257 256 264 263 250 247 251 nan nan nan nan nan nan nan nan nan nan nan nan nan nan nan nan nan 266 273 278 277 282 282 284 nan nan nan nan nan nan
284 277 274 266 261 261 261 263 282 275 263 259 263 267 271 269 267 265 256 249 252 256 250 244 242 243 258 262 258 255 251 245 247 247 250 nan nan nan nan nan nan nan nan nan nan nan nan nan nan nan nan 260 266 260 269 267 271 nan nan nan nan nan nan
292 269 264 271 263 260 267 269 268 275 270 253 254 261 261 261 268 266 255 247 244 243 239 242 245 248 249 256 259 258 253 252 244 249 252 249 248 nan nan nan nan nan nan nan nan nan nan nan nan nan nan nan 277 264 258 268 272 274 nan nan nan nan nan
286 279 nan nan nan 267 272 267 268 268 274 275 266 265 262 258 262 264 255 249 250 246 235 235 244 248 248 253 253 256 256 255 250 250 247 246 248 nan nan nan nan nan nan nan nan nan nan nan nan nan nan nan nan nan 267 260 271 272 267 nan 269 nan nan
283 281 274 268 266 263 262 264 264 267 273 276 268 262 266 264 264 263 254 243 241 241 238 237 237 243 248 251 252 252 250 251 251 251 250 250 252 251 nan nan nan nan nan nan nan nan nan nan nan nan nan nan nan nan nan nan nan nan nan 268 267 nan nan
285 284 279 272 269 264 258 260 267 268 267 268 271 270 268 265 263 266 263 250 240 236 238 240 235 234 240 239 247 254 252 254 253 253 250 253 258 259 262 259 nan nan nan nan nan nan nan nan nan nan nan nan nan nan nan nan nan nan nan nan 268 nan nan
286 281 279 276 275 271 264 262 268 274 272 275 276 273 267 268 265 269 267 252 239 237 239 237 235 234 244 248 245 251 254 250 250 254 251 254 257 261 260 nan nan 256 255 259 264 nan nan nan nan nan nan nan nan nan nan nan nan nan nan nan nan nan nan
294 281 278 278 274 272 267 262 259 260 264 263 260 252 250 260 265 260 248 241 236 237 238 234 229 234 239 237 234 237 246 249 250 251 249 254 255 258 258 nan nan 252 254 256 263 271 nan nan nan nan nan nan nan nan nan nan nan nan nan nan nan nan nan
291 281 274 274 269 267 265 263 259 261 262 264 nan 263 255 252 254 249 235 229 233 233 231 232 232 236 238 239 237 233 234 243 248 249 246 249 253 258 258 254 252 nan 255 260 262 269 nan nan nan nan nan nan nan nan nan nan nan nan nan nan nan nan nan
283 283 277 273 267 261 261 260 260 263 264 263 nan 260 258 254 251 248 241 236 234 232 230 231 233 235 240 241 239 240 241 244 247 249 247 248 247 251 249 251 252 253 256 258 260 264 nan nan nan nan nan nan nan nan nan nan nan nan nan nan nan nan nan
285 285 278 269 260 254 256 256 256 258 258 259 262 258 256 258 251 244 240 236 233 232 230 232 235 236 240 241 243 243 243 247 248 246 245 247 249 249 251 247 245 247 252 258 262 265 267 269 268 nan nan nan nan nan nan nan nan nan nan nan nan nan nan
287 286 274 256 239 244 255 257 256 260 256 254 255 253 252 256 254 249 244 238 234 234 231 234 239 239 240 240 241 242 242 246 248 248 245 247 248 253 255 254 245 245 252 258 261 nan nan 267 268 267 266 264 nan nan nan nan nan nan nan nan nan nan nan
280 277 263 231 217 232 254 257 256 258 257 252 252 252 253 256 253 249 244 241 238 237 236 230 238 239 238 236 239 239 240 244 247 247 245 244 247 250 254 255 252 251 254 257 260 263 266 268 269 269 268 266 264 nan nan nan nan nan nan nan nan nan nan
267 264 259 239 225 236 243 249 258 259 253 248 248 251 248 248 250 250 249 242 239 240 240 238 238 239 238 236 234 237 239 241 244 243 245 247 248 251 253 254 254 256 260 264 263 263 266 271 270 269 267 265 266 264 nan nan nan nan nan nan nan nan nan
272 231 240 234 231 238 237 238 250 255 250 246 nan 250 244 242 246 251 247 242 240 242 241 240 238 237 237 235 234 234 238 240 240 242 243 245 247 248 252 254 255 260 265 266 265 266 270 272 272 270 269 269 270 270 269 274 nan nan nan nan nan nan nan
307 272 244 240 243 247 247 240 242 244 243 244 250 251 247 243 244 245 243 239 241 242 242 240 237 239 239 238 237 237 237 239 243 244 246 246 250 252 255 257 259 258 256 262 265 268 272 274 nan nan 274 271 272 270 267 266 268 nan nan nan nan nan nan
323 294 263 247 249 255 254 258 267 255 242 245 252 248 245 245 242 241 241 243 245 245 243 237 236 238 241 240 240 241 238 237 241 245 248 250 252 256 259 259 256 259 263 262 263 267 271 nan nan nan nan 273 271 272 274 272 268 nan nan nan nan nan nan
293 287 265 247 251 261 267 270 269 267 260 260 260 257 250 247 243 238 241 246 245 243 240 238 237 239 240 240 242 240 240 241 245 247 249 252 254 257 257 258 258 258 260 262 264 268 270 275 272 nan nan 272 272 272 269 269 267 265 nan nan nan nan nan
221 252 266 255 261 272 278 278 271 263 259 261 257 251 247 245 244 239 234 236 243 244 240 238 238 241 244 245 244 243 242 244 246 247 248 250 253 256 258 259 259 262 262 265 269 272 274 278 276 278 277 275 274 270 270 268 266 266 267 nan nan nan nan
233 217 249 272 273 279 287 288 274 262 259 260 257 249 246 245 241 237 236 236 241 245 245 244 239 237 243 248 248 247 243 241 243 244 244 251 254 256 259 260 261 264 267 268 273 278 278 280 282 285 282 278 272 272 271 270 269 269 265 260 nan nan nan
230 230 231 261 278 284 289 295 287 268 256 255 255 253 250 248 248 240 234 234 240 243 242 240 238 236 240 247 248 247 246 245 246 247 249 252 256 259 261 263 265 266 269 270 274 277 281 284 281 283 278 276 271 272 271 269 270 268 263 nan nan nan nan
240 229 231 243 276 284 291 295 290 280 266 250 250 253 250 247 249 251 243 238 237 237 243 242 234 233 236 241 243 245 246 247 249 251 253 256 258 260 260 260 262 264 266 269 270 275 287 283 277 277 274 271 270 270 267 264 267 267 261 259 nan 256 261
244 237 232 239 262 282 290 293 296 292 274 250 246 250 250 249 253 255 249 238 232 232 235 234 228 236 239 240 241 242 244 248 250 252 254 255 255 256 258 258 258 263 267 273 275 256 249 254 255 256 260 260 265 266 266 266 261 262 262 263 nan nan 266
nan nan 239 236 248 275 287 290 293 294 280 255 nan 248 250 251 254 253 248 242 236 232 234 233 234 235 240 245 244 246 248 247 248 250 252 255 256 256 254 255 256 260 264 262 257 263 268 260 256 255 255 254 nan 249 256 nan nan nan nan nan nan nan nan
nan nan nan nan nan 261 282 288 288 286 280 264 249 250 251 250 252 252 248 246 245 245 242 240 242 236 237 245 248 248 249 249 248 248 249 251 252 254 255 253 250 252 255 261 262 260 261 263 263 261 259 252 248 nan nan nan nan nan nan nan nan nan nan
nan nan nan nan nan nan 277 284 281 279 278 nan nan 261 258 252 250 250 251 251 250 249 244 240 241 241 240 247 254 253 250 249 249 247 247 248 251 253 254 255 254 253 258 267 263 262 262 260 258 259 257 254 250 247 nan nan nan nan nan nan nan nan nan
nan nan nan nan nan nan 267 278 277 277 272 268 267 261 258 260 253 251 252 252 251 249 244 237 240 243 242 248 255 251 248 247 244 242 243 247 250 255 259 263 262 260 260 264 265 266 263 261 259 255 252 250 251 nan nan nan nan nan nan nan nan nan nan
nan nan nan nan nan nan 239 258 276 272 270 271 268 nan 263 260 255 250 248 248 248 246 239 235 242 246 247 253 255 249 247 245 242 241 240 243 246 252 256 258 262 nan 265 265 268 270 265 261 257 254 252 250 nan nan nan nan nan nan nan nan nan nan nan
nan nan nan nan nan nan 247 244 244 244 255 nan 253 251 247 253 257 252 247 247 246 243 233 237 248 251 255 255 253 247 248 246 244 242 242 nan 247 250 254 259 nan nan 264 267 271 273 267 262 258 257 nan nan nan nan nan nan nan nan nan nan nan nan nan
nan nan nan nan nan nan nan 245 246 248 246 249 254 250 248 247 248 248 245 243 244 240 235 236 248 255 260 260 252 248 248 245 241 nan nan nan nan nan nan nan nan 264 nan 266 270 272 271 nan nan nan nan nan nan nan nan nan nan nan nan nan nan nan nan
nan nan nan nan nan nan nan nan 250 249 248 nan nan 240 244 246 244 241 237 nan nan 240 235 237 246 252 254 256 260 255 251 249 nan nan nan nan nan nan nan nan 258 264 nan nan nan nan nan nan nan nan nan nan nan nan nan nan nan nan nan nan nan nan nan
nan nan nan nan nan nan nan nan nan nan 250 nan nan 238 237 241 244 241 nan nan 231 232 235 236 242 249 252 251 252 254 nan nan nan nan nan nan nan nan 248 247 248 nan nan nan nan nan nan nan nan nan nan nan nan nan nan nan nan nan nan nan nan nan nan
nan nan nan nan nan nan nan nan nan 256 252 nan nan nan 238 238 240 240 nan nan 233 233 234 235 236 242 246 246 nan nan nan nan nan nan nan nan nan nan nan nan nan nan nan nan nan nan nan nan nan nan nan nan nan nan nan nan nan nan nan nan nan nan nan
nan nan nan nan nan nan nan nan nan nan nan nan nan nan 237 237 238 nan nan nan nan nan 233 233 nan nan nan 241 241 nan nan nan nan nan nan nan nan nan nan nan nan nan nan nan nan nan nan nan nan nan nan nan nan nan nan nan nan nan nan nan nan nan nan
nan nan nan nan nan nan nan nan nan nan nan nan nan nan 234 nan nan nan nan nan nan nan nan nan nan nan nan nan nan nan nan nan nan nan nan nan nan nan nan nan nan nan nan nan nan nan nan nan nan nan nan nan nan nan nan nan nan nan nan nan nan nan nan
nan nan nan nan nan nan nan nan nan nan nan nan nan nan nan nan nan nan nan nan nan nan nan nan nan nan nan nan nan nan nan nan nan nan nan nan nan nan nan nan nan nan nan nan nan nan nan nan nan nan nan nan nan nan nan nan nan nan nan nan nan nan nan
nan nan nan nan nan nan nan nan nan nan nan nan nan nan nan nan nan nan nan nan nan nan nan nan nan nan nan nan nan nan nan nan nan nan nan nan nan nan nan nan nan nan nan nan nan nan nan nan nan nan nan nan nan nan nan nan nan nan nan nan nan nan nan